Time,TemperatureF,DewpointF,PressureIn,WindDirection,WindDirectionDegrees,WindSpeedMPH,WindSpeedGustMPH,Humidity,HourlyPrecipIn,Conditions,Clouds,dailyrainin,SoftwareType,DateUTC
2013-05-06 00:00:00,50.5,43.6,28.97,NE,51,0.0,8.1,77,0.00,,OVC017,0.00,VWS V14.01,2013-05-06 05:00:00,
2013-05-06 00:15:00,50.5,43.3,28.97,NNE,33,0.0,8.1,76,0.00,,OVC015,0.00,VWS V14.01,2013-05-06 05:15:00,
2013-05-06 00:30:00,50.5,43.3,28.97,NNE,28,0.0,8.1,76,0.00,,OVC015,0.00,VWS V14.01,2013-05-06 05:30:00,
2013-05-06 00:45:00,50.5,43.6,28.97,NNE,30,0.0,0.0,77,0.00,,OVC015,0.00,VWS V14.01,2013-05-06 05:45:00,
2013-05-06 01:00:00,50.4,43.4,28.97,NE,43,0.0,0.0,77,0.00,,OVC015,0.00,VWS V14.01,2013-05-06 06:00:00,
2013-05-06 01:15:00,50.4,43.4,28.97,NNE,31,0.0,0.0,77,0.00,,OVC013,0.00,VWS V14.01,2013-05-06 06:15:00,
2013-05-06 01:30:00,50.2,43.6,28.97,ENE,57,0.0,0.0,78,0.00,,OVC013,0.00,VWS V14.01,2013-05-06 06:30:00,
2013-05-06 01:45:00,50.2,43.6,28.97,NNE,30,0.0,0.0,78,0.00,,OVC013,0.00,VWS V14.01,2013-05-06 06:45:00,
2013-05-06 02:00:00,50.0,43.4,28.97,NE,53,0.0,0.0,78,0.00,,OVC013,0.00,VWS V14.01,2013-05-06 07:00:00,
2013-05-06 02:15:00,50.0,43.4,28.94,NE,56,0.0,8.1,78,0.00,,OVC011,0.00,VWS V14.01,2013-05-06 07:15:00,
2013-05-06 02:30:00,49.8,43.9,28.94,ENE,58,0.0,8.1,80,0.00,,OVC011,0.00,VWS V14.01,2013-05-06 07:30:00,
2013-05-06 02:45:00,49.6,44.1,28.94,NNE,24,0.0,9.4,81,0.00,,OVC011,0.00,VWS V14.01,2013-05-06 07:45:00,
2013-05-06 03:00:00,49.6,44.4,28.94,ENE,64,0.0,14.1,82,0.00,,OVC011,0.00,VWS V14.01,2013-05-06 08:00:00,
2013-05-06 03:15:00,49.5,44.5,28.94,ENE,74,0.0,10.7,83,0.00,,OVC009,0.00,VWS V14.01,2013-05-06 08:15:00,
2013-05-06 03:30:00,49.5,44.5,28.94,ENE,75,0.0,12.1,83,0.00,,OVC009,0.00,VWS V14.01,2013-05-06 08:30:00,
2013-05-06 03:45:00,49.3,44.3,28.94,NE,44,0.0,0.0,83,0.00,,OVC009,0.00,VWS V14.01,2013-05-06 08:45:00,
2013-05-06 04:00:00,49.1,44.2,28.94,ENE,58,0.0,14.1,83,0.00,,OVC009,0.00,VWS V14.01,2013-05-06 09:00:00,
2013-05-06 04:15:00,48.9,44.3,28.94,NE,54,0.0,10.7,84,0.00,,OVC009,0.00,VWS V14.01,2013-05-06 09:15:00,
2013-05-06 04:30:00,49.1,44.5,28.97,NE,42,0.0,0.0,84,0.00,,OVC009,0.00,VWS V14.01,2013-05-06 09:30:00,
2013-05-06 04:45:00,48.7,43.8,28.97,ENE,77,0.0,0.0,83,0.00,,OVC009,0.00,VWS V14.01,2013-05-06 09:45:00,
2013-05-06 05:00:00,48.7,43.8,28.97,ENE,63,0.0,8.1,83,0.00,,OVC009,0.00,VWS V14.01,2013-05-06 10:00:00,
2013-05-06 05:15:00,48.6,43.6,28.97,ENE,62,0.0,8.1,83,0.00,,,0.00,VWS V14.01,2013-05-06 10:15:00,
2013-05-06 05:30:00,48.6,43.6,28.97,NNE,32,0.0,0.0,83,0.00,,,0.00,VWS V14.01,2013-05-06 10:30:00,
2013-05-06 05:45:00,48.6,43.6,28.97,NE,52,0.0,0.0,83,0.00,,,0.00,VWS V14.01,2013-05-06 10:45:00,
2013-05-06 06:00:00,48.7,43.8,28.97,ENE,60,0.0,0.0,83,0.00,,,0.00,VWS V14.01,2013-05-06 11:00:00,
2013-05-06 06:15:00,48.6,43.6,28.97,ENE,74,0.0,0.0,83,0.00,,,0.00,VWS V14.01,2013-05-06 11:15:00,
2013-05-06 06:30:00,48.6,43.6,28.97,NE,41,0.0,0.0,83,0.00,,,0.00,VWS V14.01,2013-05-06 11:30:00,
2013-05-06 06:45:00,48.6,43.6,28.97,NNE,33,0.0,0.0,83,0.00,,,0.00,VWS V14.01,2013-05-06 11:45:00,
2013-05-06 07:00:00,48.6,43.6,28.97,NE,46,0.0,8.1,83,0.00,,,0.00,VWS V14.01,2013-05-06 12:00:00,
2013-05-06 07:15:00,48.7,43.8,28.97,ENE,59,0.0,8.1,83,0.00,,,0.00,VWS V14.01,2013-05-06 12:15:00,
2013-05-06 07:30:00,48.7,43.8,28.97,NE,56,0.0,0.0,83,0.00,,,0.00,VWS V14.01,2013-05-06 12:30:00,
2013-05-06 07:45:00,48.7,43.8,28.97,NNE,24,0.0,0.0,83,0.00,,,0.00,VWS V14.01,2013-05-06 12:45:00,
2013-05-06 08:00:00,48.9,43.7,28.97,ENE,63,0.0,0.0,82,0.00,,,0.00,VWS V14.01,2013-05-06 13:00:00,
2013-05-06 08:15:00,48.9,43.3,29.00,NE,43,0.0,8.1,81,0.00,,,0.00,VWS V14.01,2013-05-06 13:15:00,
2013-05-06 08:30:00,48.9,43.0,29.00,ENE,62,12.1,12.1,80,0.00,,,0.00,VWS V14.01,2013-05-06 13:30:00,
2013-05-06 08:45:00,49.1,42.9,29.00,ENE,73,0.0,12.1,79,0.00,,,0.00,VWS V14.01,2013-05-06 13:45:00,
2013-05-06 09:00:00,49.5,43.2,29.00,ENE,62,0.0,10.7,79,0.00,,,0.00,VWS V14.01,2013-05-06 14:00:00,
2013-05-06 09:15:00,49.5,42.6,29.00,East,80,0.0,13.4,77,0.00,,,0.00,VWS V14.01,2013-05-06 14:15:00,
2013-05-06 09:30:00,49.8,42.9,29.00,ESE,113,0.0,8.1,77,0.00,,,0.00,VWS V14.01,2013-05-06 14:30:00,
2013-05-06 09:45:00,50.2,42.9,29.00,East,89,0.0,8.1,76,0.00,,,0.00,VWS V14.01,2013-05-06 14:45:00,
2013-05-06 10:00:00,50.5,43.3,29.00,NNW,346,0.0,8.1,76,0.00,,,0.00,VWS V14.01,2013-05-06 15:00:00,
2013-05-06 10:15:00,50.5,42.9,29.00,East,93,0.0,9.4,75,0.00,,,0.00,VWS V14.01,2013-05-06 15:15:00,
2013-05-06 10:30:00,50.9,42.9,29.00,ENE,70,0.0,8.1,74,0.00,,,0.00,VWS V14.01,2013-05-06 15:30:00,
2013-05-06 10:45:00,51.6,43.6,29.00,NE,51,0.0,9.4,74,0.00,,,0.00,VWS V14.01,2013-05-06 15:45:00,
2013-05-06 11:00:00,51.6,43.3,29.00,ENE,76,0.0,9.4,73,0.00,,,0.00,VWS V14.01,2013-05-06 16:00:00,
2013-05-06 11:15:00,53.1,43.9,29.00,NE,49,0.0,10.7,71,0.00,,,0.00,VWS V14.01,2013-05-06 16:15:00,
2013-05-06 11:30:00,53.1,42.8,29.00,ENE,70,0.0,9.4,68,0.00,,,0.00,VWS V14.01,2013-05-06 16:30:00,
2013-05-06 11:45:00,54.1,42.2,29.00,ENE,74,0.0,10.7,64,0.00,,,0.00,VWS V14.01,2013-05-06 16:45:00,
2013-05-06 12:00:00,55.8,43.8,29.00,NW,322,0.0,10.7,64,0.00,,,0.00,VWS V14.01,2013-05-06 17:00:00,
2013-05-06 12:15:00,56.1,42.4,29.00,NNE,13,0.0,9.4,60,0.00,,,0.00,VWS V14.01,2013-05-06 17:15:00,
2013-05-06 12:30:00,56.5,41.0,29.00,NE,46,0.0,10.7,56,0.00,,,0.00,VWS V14.01,2013-05-06 17:30:00,
2013-05-06 12:45:00,57.7,41.2,29.00,SSE,151,0.0,12.1,54,0.00,,,0.00,VWS V14.01,2013-05-06 17:45:00,
2013-05-06 13:00:00,59.2,42.6,28.97,ENE,61,0.0,14.1,54,0.00,,,0.00,VWS V14.01,2013-05-06 18:00:00,
2013-05-06 13:15:00,58.3,40.8,28.97,NE,41,0.0,9.4,52,0.00,,,0.00,VWS V14.01,2013-05-06 18:15:00,
2013-05-06 13:30:00,59.2,42.6,28.97,North,357,0.0,13.4,54,0.00,,,0.00,VWS V14.01,2013-05-06 18:30:00,
2013-05-06 13:45:00,59.2,43.0,28.97,ENE,57,0.0,14.1,55,0.00,,,0.00,VWS V14.01,2013-05-06 18:45:00,
2013-05-06 14:00:00,59.4,44.1,28.97,ENE,78,0.0,15.4,57,0.00,,,0.00,VWS V14.01,2013-05-06 19:00:00,
2013-05-06 14:15:00,60.1,43.4,28.97,NE,56,0.0,15.4,54,0.00,,,0.00,VWS V14.01,2013-05-06 19:15:00,
2013-05-06 14:30:00,61.0,42.7,28.94,NNE,17,0.0,14.1,51,0.00,,,0.00,VWS V14.01,2013-05-06 19:30:00,
2013-05-06 14:45:00,61.2,42.4,28.94,ESE,117,0.0,12.1,50,0.00,,,0.00,VWS V14.01,2013-05-06 19:45:00,
2013-05-06 15:00:00,62.1,43.7,28.94,NE,49,0.0,9.4,51,0.00,,,0.00,VWS V14.01,2013-05-06 20:00:00,
2013-05-06 15:15:00,63.0,43.5,28.94,NNE,12,0.0,8.1,49,0.00,,SCT250,0.00,VWS V14.01,2013-05-06 20:15:00,
2013-05-06 15:30:00,63.5,42.9,28.94,ESE,108,0.0,9.4,47,0.00,,SCT250,0.00,VWS V14.01,2013-05-06 20:30:00,
2013-05-06 15:45:00,63.9,42.7,28.91,NE,56,0.0,9.4,46,0.00,,SCT250,0.00,VWS V14.01,2013-05-06 20:45:00,
2013-05-06 16:00:00,64.2,43.0,28.91,East,101,9.4,19.5,46,0.00,,SCT250,0.00,VWS V14.01,2013-05-06 21:00:00,
2013-05-06 16:15:00,64.6,42.8,28.91,ENE,61,0.0,10.7,45,0.00,,FEW250,0.00,VWS V14.01,2013-05-06 21:15:00,
2013-05-06 16:30:00,65.3,43.4,28.91,ENE,62,0.0,0.0,45,0.00,,FEW250,0.00,VWS V14.01,2013-05-06 21:30:00,
2013-05-06 16:45:00,65.7,42.6,28.88,ENE,69,0.0,15.4,43,0.00,,FEW250,0.00,VWS V14.01,2013-05-06 21:45:00,
2013-05-06 17:00:00,65.8,42.7,28.88,ENE,58,0.0,10.7,43,0.00,,FEW250,0.00,VWS V14.01,2013-05-06 22:00:00,
2013-05-06 17:15:00,65.8,42.7,28.88,East,79,0.0,9.4,43,0.00,,SCT250,0.00,VWS V14.01,2013-05-06 22:15:00,
2013-05-06 17:30:00,66.4,42.6,28.88,ENE,75,0.0,12.1,42,0.00,,SCT250,0.00,VWS V14.01,2013-05-06 22:30:00,
2013-05-06 17:45:00,66.4,42.6,28.88,ESE,108,0.0,9.4,42,0.00,,SCT250,0.00,VWS V14.01,2013-05-06 22:45:00,
2013-05-06 18:00:00,66.4,43.2,28.88,ENE,74,0.0,14.1,43,0.00,,SCT250,0.00,VWS V14.01,2013-05-06 23:00:00,
2013-05-06 18:15:00,66.4,42.0,28.88,ENE,69,0.0,0.0,41,0.00,,SCT250,0.00,VWS V14.01,2013-05-06 23:15:00,
2013-05-06 18:30:00,66.4,41.3,28.88,ENE,58,0.0,0.0,40,0.00,,SCT250,0.00,VWS V14.01,2013-05-06 23:30:00,
2013-05-06 18:45:00,65.8,42.7,28.88,ENE,66,0.0,0.0,43,0.00,,SCT250,0.00,VWS V14.01,2013-05-06 23:45:00,
2013-05-06 19:00:00,65.7,43.2,28.88,East,96,0.0,0.0,44,0.00,,SCT250,0.00,VWS V14.01,2013-05-07 00:00:00,
2013-05-06 19:15:00,65.5,43.0,28.88,East,98,0.0,0.0,44,0.00,,SCT250,0.00,VWS V14.01,2013-05-07 00:15:00,
2013-05-06 19:30:00,64.9,43.1,28.88,East,99,0.0,0.0,45,0.00,,SCT250,0.00,VWS V14.01,2013-05-07 00:30:00,
2013-05-06 19:45:00,64.4,42.6,28.88,ESE,105,0.0,0.0,45,0.00,,SCT250,0.00,VWS V14.01,2013-05-07 00:45:00,
2013-05-06 20:00:00,63.9,42.7,28.88,ESE,105,0.0,0.0,46,0.00,,SCT250,0.00,VWS V14.01,2013-05-07 01:00:00,
2013-05-06 20:15:00,63.0,43.0,28.88,ESE,105,0.0,0.0,48,0.00,,BKN250,0.00,VWS V14.01,2013-05-07 01:15:00,
2013-05-06 20:30:00,61.7,41.8,28.88,ESE,105,0.0,0.0,48,0.00,,BKN250,0.00,VWS V14.01,2013-05-07 01:30:00,
2013-05-06 20:45:00,60.3,41.6,28.88,ESE,105,0.0,0.0,50,0.00,,BKN250,0.00,VWS V14.01,2013-05-07 01:45:00,
2013-05-06 21:00:00,59.2,42.6,28.88,ESE,105,0.0,0.0,54,0.00,,BKN250,0.00,VWS V14.01,2013-05-07 02:00:00,
2013-05-06 21:15:00,58.5,43.3,28.91,ESE,105,0.0,0.0,57,0.00,,SCT250,0.00,VWS V14.01,2013-05-07 02:15:00,
2013-05-06 21:30:00,58.3,44.5,28.91,ESE,105,0.0,0.0,60,0.00,,SCT250,0.00,VWS V14.01,2013-05-07 02:30:00,
2013-05-06 21:45:00,57.6,43.8,28.91,ESE,105,0.0,0.0,60,0.00,,SCT250,0.00,VWS V14.01,2013-05-07 02:45:00,
2013-05-06 22:00:00,56.7,43.4,28.91,ESE,105,0.0,0.0,61,0.00,,SCT250,0.00,VWS V14.01,2013-05-07 03:00:00,
2013-05-06 22:15:00,55.8,43.0,28.91,ESE,105,0.0,0.0,62,0.00,,FEW250,0.00,VWS V14.01,2013-05-07 03:15:00,
2013-05-06 22:30:00,54.7,43.2,28.91,ESE,105,0.0,0.0,65,0.00,,FEW250,0.00,VWS V14.01,2013-05-07 03:30:00,
2013-05-06 22:45:00,54.0,43.3,28.91,ESE,105,0.0,0.0,67,0.00,,FEW250,0.00,VWS V14.01,2013-05-07 03:45:00,
2013-05-06 23:00:00,53.4,43.9,28.91,ESE,105,0.0,0.0,70,0.00,,FEW250,0.00,VWS V14.01,2013-05-07 04:00:00,
2013-05-06 23:15:00,52.7,43.2,28.91,ESE,105,0.0,0.0,70,0.00,,FEW250,0.00,VWS V14.01,2013-05-07 04:15:00,
2013-05-06 23:30:00,52.3,44.0,28.91,ESE,105,0.0,0.0,73,0.00,,FEW250,0.00,VWS V14.01,2013-05-07 04:30:00,
2013-05-06 23:45:00,51.8,43.4,28.91,ESE,105,0.0,0.0,73,0.00,,FEW250,0.00,VWS V14.01,2013-05-07 04:45:00,